2024-169F

Last updated on Fri Oct 04 2024 00:02:04 GMT+0000 (Coordinated Universal Time)

1 61194U 24169F 24277.53119962 .00022333 00000+0 13167-2 0 9993 2 61194 97.5955 2.8363 0017136 243.1876 116.7602 15.11457891 2012
UTC large
Height (km)
Speed (km/s)
/
Latitude / Longitude
Inclination (degrees)
Orbital Period (minutes)
Azimuth
Elevation
Range (km)
Doppler Factor

Next 0 passes for location: London (51.5072 / 0.1276)

Sorry there are no passes over London.